When you browse on this site, cookies collect data to enhance your experience and personalize the content and advertising you see.
Visit our Privacy Policy to learn more. By continuing to use the site, you agree to this use of cookies and data.
  • In Romania
  • List of Countries
  • For 7 days
  • Water Temperature
  • Weather Map
  • Weather Widgets
  • user-avatar
    Login

    Hourly Weather Seondha

    Today, 23 January, Thursday

    Time Temperature Precipitation Wind Pressure Humidity
    00:00 +12°C° 0 mm 2 mps 750 mmHg 67%
    01:00 +12°C° 0 mm 2 mps 750 mmHg 69%
    02:00 +10°C° 0 mm 3 mps 750 mmHg 71%
    03:00 +10°C° 0 mm 3 mps 750 mmHg 72%
    04:00 +9°C° 0 mm 3 mps 750 mmHg 73%
    05:00 +9°C° 0 mm 3 mps 749 mmHg 75%
    06:00 +10°C° 0 mm 3 mps 750 mmHg 73%
    07:00 +10°C° 0 mm 3 mps 751 mmHg 71%
    08:00 +11°C° 0 mm 3 mps 751 mmHg 69%
    09:00 +13°C° 0 mm 4 mps 751 mmHg 62%
    10:00 +15°C° 0 mm 4 mps 751 mmHg 55%
    11:00 +19°C° 0 mm 5 mps 750 mmHg 49%
    12:00 +19°C° 0 mm 5 mps 750 mmHg 46%
    13:00 +20°C° 0 mm 5 mps 749 mmHg 44%
    14:00 +21°C° 0 mm 5 mps 749 mmHg 41%
    15:00 +19°C° 0 mm 4 mps 748 mmHg 46%
    16:00 +18°C° 0 mm 3 mps 748 mmHg 50%
    17:00 +17°C° 0 mm 3 mps 748 mmHg 55%
    18:00 +16°C° 0 mm 3 mps 749 mmHg 56%
    19:00 +14°C° 0 mm 3 mps 749 mmHg 57%
    20:00 +13°C° 0 mm 3 mps 750 mmHg 58%
    21:00 +12°C° 0 mm 3 mps 750 mmHg 59%
    22:00 +12°C° 0 mm 3 mps 750 mmHg 60%
    23:00 +11°C° 0 mm 3 mps 750 mmHg 62%

    Tomorrow, 24 January, Friday

    Time Temperature Precipitation Wind Pressure Humidity
    00:00 +11°C° 0 mm 3 mps 749 mmHg 62%
    01:00 +10°C° 0 mm 3 mps 749 mmHg 62%
    02:00 +10°C° 0 mm 3 mps 749 mmHg 61%
    03:00 +9°C° 0 mm 3 mps 749 mmHg 60%
    04:00 +9°C° 0 mm 3 mps 748 mmHg 59%
    05:00 +8°C° 0 mm 3 mps 748 mmHg 57%
    06:00 +9°C° 0 mm 3 mps 749 mmHg 57%
    07:00 +10°C° 0 mm 3 mps 750 mmHg 56%
    08:00 +10°C° 0 mm 3 mps 750 mmHg 56%
    09:00 +13°C° 0 mm 4 mps 750 mmHg 50%
    10:00 +15°C° 0 mm 4 mps 750 mmHg 45%
    11:00 +19°C° 0 mm 5 mps 749 mmHg 40%
    12:00 +19°C° 0 mm 4 mps 749 mmHg 38%
    13:00 +20°C° 0 mm 4 mps 748 mmHg 37%
    14:00 +21°C° 0 mm 4 mps 747 mmHg 36%
    15:00 +20°C° 0 mm 3 mps 747 mmHg 40%
    16:00 +18°C° 0 mm 2 mps 747 mmHg 45%
    17:00 +17°C° 0 mm 2 mps 746 mmHg 50%
    18:00 +16°C° 0 mm 1 mps 747 mmHg 51%
    19:00 +15°C° 0 mm 1 mps 748 mmHg 51%
    20:00 +14°C° 0 mm 1 mps 748 mmHg 51%
    21:00 +13°C° 0 mm 1 mps 748 mmHg 51%
    22:00 +13°C° 0 mm 1 mps 749 mmHg 52%
    23:00 +13°C° 0 mm 1 mps 749 mmHg 52%

    Day after tomorrow, 25 January, Saturday

    Time Temperature Precipitation Wind Pressure Humidity
    00:00 +12°C° 0 mm 1 mps 748 mmHg 53%
    01:00 +12°C° 0 mm 1 mps 748 mmHg 54%
    02:00 +11°C° 0 mm 1 mps 748 mmHg 55%
    03:00 +11°C° 0 mm 1 mps 748 mmHg 56%
    04:00 +10°C° 0 mm 1 mps 748 mmHg 57%
    05:00 +10°C° 0 mm 1 mps 748 mmHg 59%
    06:00 +11°C° 0 mm 1 mps 748 mmHg 57%
    07:00 +12°C° 0 mm 1 mps 749 mmHg 56%
    08:00 +12°C° 0 mm 1 mps 749 mmHg 55%
    09:00 +15°C° 0 mm 1 mps 749 mmHg 48%
    10:00 +18°C° 0 mm 1 mps 749 mmHg 42%
    11:00 +19°C° 0 mm 2 mps 749 mmHg 36%
    12:00 +20°C° 0 mm 2 mps 748 mmHg 34%
    13:00 +21°C° 0 mm 2 mps 747 mmHg 32%
    14:00 +23°C° 0 mm 2 mps 747 mmHg 30%
    15:00 +21°C° 0 mm 2 mps 746 mmHg 35%
    16:00 +19°C° 0 mm 2 mps 746 mmHg 40%
    17:00 +19°C° 0 mm 1 mps 746 mmHg 45%
    18:00 +18°C° 0 mm 1 mps 746 mmHg 45%
    19:00 +16°C° 0 mm 1 mps 747 mmHg 45%
    20:00 +15°C° 0 mm 1 mps 747 mmHg 45%
    21:00 +14°C° 0 mm 1 mps 747 mmHg 46%
    22:00 +13°C° 0 mm 0 mps 748 mmHg 47%
    23:00 +12°C° 0 mm 0 mps 748 mmHg 47%

    26 January, Sunday

    Time Temperature Precipitation Wind Pressure Humidity
    00:00 +12°C° 0 mm 0 mps 747 mmHg 48%
    01:00 +12°C° 0 mm 0 mps 747 mmHg 48%
    02:00 +13°C° 0 mm 1 mps 747 mmHg 48%
    03:00 +12°C° 0 mm 1 mps 747 mmHg 49%
    04:00 +12°C° 0 mm 1 mps 747 mmHg 50%
    05:00 +12°C° 0 mm 1 mps 746 mmHg 51%
    06:00 +12°C° 0 mm 0 mps 747 mmHg 51%
    07:00 +13°C° 0 mm 0 mps 747 mmHg 51%
    08:00 +13°C° 0 mm 0 mps 748 mmHg 51%
    09:00 +16°C° 0 mm 0 mps 748 mmHg 47%
    10:00 +18°C° 0 mm 0 mps 748 mmHg 43%
    11:00 +22°C° 0 mm 1 mps 748 mmHg 39%
    12:00 +23°C° 0 mm 1 mps 747 mmHg 37%
    13:00 +24°C° 0 mm 1 mps 747 mmHg 36%
    14:00 +25°C° 0 mm 1 mps 746 mmHg 34%
    15:00 +23°C° 0 mm 1 mps 746 mmHg 39%
    16:00 +22°C° 0 mm 1 mps 746 mmHg 44%
    17:00 +21°C° 0 mm 1 mps 746 mmHg 49%
    18:00 +17°C° 0 mm 0 mps 746 mmHg 51%
    19:00 +16°C° 0 mm 0 mps 746 mmHg 53%
    20:00 +15°C° 0 mm 0 mps 747 mmHg 54%
    21:00 +15°C° 0 mm 0 mps 747 mmHg 55%
    22:00 +16°C° 0 mm 1 mps 746 mmHg 56%
    23:00 +15°C° 0 mm 1 mps 746 mmHg 57%

    27 January, Monday

    Time Temperature Precipitation Wind Pressure Humidity
    00:00 +15°C° 0 mm 1 mps 746 mmHg 58%
    01:00 +14°C° 0 mm 1 mps 745 mmHg 60%
    02:00 +14°C° 0 mm 1 mps 745 mmHg 61%
    03:00 +13°C° 0 mm 0 mps 745 mmHg 63%
    04:00 +12°C° 0 mm 0 mps 745 mmHg 64%
    05:00 +12°C° 0 mm 0 mps 745 mmHg 66%
    06:00 +13°C° 0 mm 0 mps 746 mmHg 64%
    07:00 +14°C° 0 mm 0 mps 746 mmHg 63%
    08:00 +16°C° 0 mm 1 mps 747 mmHg 61%
    09:00 +19°C° 0 mm 1 mps 747 mmHg 56%
    10:00 +21°C° 0 mm 1 mps 747 mmHg 51%
    11:00 +21°C° 0 mm 2 mps 747 mmHg 46%
    12:00 +23°C° 0 mm 2 mps 746 mmHg 44%
    13:00 +24°C° 0 mm 2 mps 745 mmHg 42%
    14:00 +25°C° 0 mm 2 mps 744 mmHg 39%
    15:00 +24°C° 0 mm 2 mps 744 mmHg 44%
    16:00 +23°C° 0 mm 1 mps 744 mmHg 49%
    17:00 +21°C° 0 mm 1 mps 744 mmHg 53%
    18:00 +19°C° 0 mm 2 mps 744 mmHg 54%
    19:00 +19°C° 0 mm 2 mps 745 mmHg 55%
    20:00 +18°C° 0 mm 3 mps 745 mmHg 56%
    21:00 +17°C° 0 mm 3 mps 745 mmHg 57%
    22:00 +17°C° 0 mm 3 mps 745 mmHg 58%
    23:00 +16°C° 0 mm 3 mps 745 mmHg 59%

    28 January, Tuesday

    Time Temperature Precipitation Wind Pressure Humidity
    00:00 +16°C° 0 mm 3 mps 744 mmHg 60%
    01:00 +14°C° 0 mm 3 mps 744 mmHg 61%
    02:00 +15°C° 0 mm 2 mps 744 mmHg 62%
    03:00 +14°C° 0 mm 3 mps 744 mmHg 63%
    04:00 +13°C° 0 mm 3 mps 744 mmHg 65%
    05:00 +13°C° 0 mm 3 mps 743 mmHg 66%
    06:00 +13°C° 0 mm 3 mps 744 mmHg 66%
    07:00 +14°C° 0 mm 3 mps 745 mmHg 66%
    08:00 +16°C° 0 mm 3 mps 745 mmHg 66%
    09:00 +18°C° 0 mm 3 mps 745 mmHg 60%
    10:00 +20°C° 0 mm 3 mps 745 mmHg 54%
    11:00 +22°C° 0 mm 3 mps 745 mmHg 47%
    12:00 +24°C° 0 mm 3 mps 745 mmHg 46%
    13:00 +24°C° 0 mm 3 mps 744 mmHg 45%
    14:00 +25°C° 0 mm 2 mps 743 mmHg 43%
    15:00 +24°C° 0 mm 3 mps 743 mmHg 47%
    16:00 +22°C° 0 mm 4 mps 743 mmHg 52%
    17:00 +21°C° 0 mm 5 mps 743 mmHg 56%
    18:00 +20°C° 0 mm 4 mps 743 mmHg 56%
    19:00 +20°C° 0 mm 3 mps 744 mmHg 56%
    20:00 +19°C° 0 mm 2 mps 744 mmHg 56%
    21:00 +19°C° 0 mm 3 mps 744 mmHg 58%
    22:00 +18°C° 0 mm 3 mps 745 mmHg 60%
    23:00 +17°C° 0 mm 3 mps 745 mmHg 62%
    Show more